| time (UTC) | temp F | wind direction | speed MPH | gust MPH | rain 1hr in | rain 24hr in | rain mn in | humidity % | barometer mb |
| 20260502220101 | 67 | 307 | 2.0 | 5.0 | 0.00 | 0.00 | 0.00 | 32 | 1004.6 |
| 20260502214558 | 67 | 305 | 1.0 | 7.0 | 0.00 | 0.00 | 0.00 | 33 | 1004.9 |
| 20260502213107 | 68 | 338 | 11.0 | 25.0 | 0.00 | 0.00 | 0.00 | 28 | 1005.3 |
| 20260502211555 | 68 | 302 | 1.0 | 7.0 | 0.00 | 0.00 | 0.00 | 31 | 1005.3 |
| 20260502210054 | 68 | 302 | 2.0 | 7.0 | 0.00 | 0.00 | 0.00 | 31 | 1005.4 |
| 20260502204557 | 68 | 302 | 2.0 | 8.0 | 0.00 | 0.00 | 0.00 | 29 | 1005.4 |
| 20260502203053 | 68 | 302 | 0.0 | 7.0 | 0.00 | 0.00 | 0.00 | 31 | 1005.5 |
| 20260502201552 | 68 | 302 | 1.0 | 6.0 | 0.00 | 0.00 | 0.00 | 30 | 1005.5 |
| 20260502200110 | 69 | 302 | 3.0 | 8.0 | 0.00 | 0.00 | 0.00 | 30 | 1005.7 |
| 20260502194605 | 69 | 301 | 3.0 | 9.0 | 0.00 | 0.00 | 0.00 | 29 | 1005.8 |
| 20260502193049 | 69 | 297 | 1.0 | 9.0 | 0.00 | 0.00 | 0.00 | 29 | 1005.7 |
| 20260502191553 | 69 | 293 | 1.0 | 11.0 | 0.00 | 0.00 | 0.00 | 31 | 1005.8 |
| 20260502190045 | 69 | 293 | 2.0 | 7.0 | 0.00 | 0.00 | 0.00 | 31 | 1006.0 |
| 20260502184545 | 68 | 296 | 4.0 | 15.0 | 0.00 | 0.00 | 0.00 | 30 | 1006.0 |
| 20260502183047 | 68 | 311 | 5.0 | 13.0 | 0.00 | 0.00 | 0.00 | 30 | 1006.1 |
| 20260502181536 | 67 | 300 | 2.0 | 7.0 | 0.00 | 0.00 | 0.00 | 35 | 1006.3 |
| 20260502163020 | 60 | 300 | 1.0 | 4.0 | 0.00 | 0.00 | 0.00 | 40 | 1006.7 |
| 20260502161513 | 59 | 300 | 1.0 | 3.0 | 0.00 | 0.00 | 0.00 | 42 | 1006.7 |
| 20260502151612 | 53 | 300 | 0.0 | 0.0 | 0.00 | 0.00 | 0.00 | 44 | 1006.8 |
| 20260502150157 | 52 | 300 | 0.0 | 0.0 | 0.00 | 0.00 | 0.00 | 44 | 1006.9 |
| 20260502123036 | 48 | 300 | 0.0 | 1.0 | 0.00 | 0.00 | 0.00 | 42 | 1006.4 |
| 20260502121536 | 48 | 300 | 0.0 | 0.0 | 0.00 | 0.00 | 0.00 | 44 | 1006.3 |
| 20260502114534 | 49 | 300 | 0.0 | 0.0 | 0.00 | 0.00 | 0.00 | 42 | 1006.4 |
| 20260502113031 | 49 | 300 | 0.0 | 0.0 | 0.00 | 0.00 | 0.00 | 42 | 1006.3 |
| 20260502111526 | 50 | 300 | 0.0 | 2.0 | 0.00 | 0.00 | 0.00 | 37 | 1006.4 |
| 20260502110025 | 50 | 300 | 0.0 | 3.0 | 0.00 | 0.00 | 0.00 | 37 | 1006.3 |
| 20260502104524 | 50 | 300 | 0.0 | 0.0 | 0.00 | 0.00 | 0.00 | 36 | 1006.4 |
| 20260502103052 | 50 | 300 | 0.0 | 3.0 | 0.00 | 0.00 | 0.00 | 35 | 1006.4 |
| 20260502101520 | 52 | 360 | 3.0 | 6.0 | 0.00 | 0.00 | 0.00 | 33 | 1006.4 |
| 20260502091514 | 53 | 360 | 2.0 | 5.0 | 0.00 | 0.00 | 0.00 | 31 | 1006.6 |
| 20260502070100 | 56 | 300 | 0.0 | 0.0 | 0.00 | 0.00 | 0.00 | 30 | 1007.6 |
| 20260502064554 | 56 | 300 | 0.0 | 3.0 | 0.00 | 0.00 | 0.00 | 33 | 1007.6 |
| 20260502063109 | 56 | 300 | 0.0 | 1.0 | 0.00 | 0.00 | 0.00 | 30 | 1007.5 |
| 20260502061554 | 57 | 300 | 0.0 | 0.0 | 0.00 | 0.00 | 0.00 | 29 | 1007.6 |
| 20260502060100 | 57 | 300 | 0.0 | 2.0 | 0.00 | 0.00 | 0.00 | 27 | 1007.8 |
| 20260502054608 | 58 | 300 | 0.0 | 1.0 | 0.00 | 0.00 | 0.00 | 26 | 1007.7 |
| 20260502053056 | 58 | 300 | 0.0 | 2.0 | 0.00 | 0.00 | 0.00 | 26 | 1007.7 |
| 20260502051551 | 59 | 300 | 2.0 | 4.0 | 0.00 | 0.00 | 0.00 | 24 | 1007.8 |
| 20260502050052 | 59 | 300 | 0.0 | 4.0 | 0.00 | 0.00 | 0.00 | 24 | 1007.8 |
| 20260502044551 | 59 | 300 | 0.0 | 4.0 | 0.00 | 0.00 | 0.00 | 23 | 1007.7 |
| 20260502043058 | 60 | 300 | 3.0 | 5.0 | 0.00 | 0.00 | 0.00 | 21 | 1007.7 |
| 20260502041549 | 60 | 300 | 1.0 | 4.0 | 0.00 | 0.00 | 0.00 | 21 | 1007.6 |
| 20260502040051 | 61 | 300 | 2.0 | 5.0 | 0.00 | 0.00 | 0.00 | 20 | 1007.4 |
| 20260502034550 | 61 | 300 | 3.0 | 6.0 | 0.00 | 0.00 | 0.00 | 21 | 1007.1 |
| 20260502033047 | 61 | 300 | 1.0 | 4.0 | 0.00 | 0.00 | 0.00 | 21 | 1006.8 |
| 20260502031546 | 63 | 300 | 1.0 | 4.0 | 0.00 | 0.00 | 0.00 | 19 | 1006.7 |
| 20260502030058 | 65 | 300 | 0.0 | 3.0 | 0.00 | 0.00 | 0.00 | 18 | 1006.5 |
| 20260502024546 | 67 | 300 | 1.0 | 6.0 | 0.00 | 0.00 | 0.00 | 16 | 1006.4 |
| 20260502023046 | 67 | 300 | 2.0 | 7.0 | 0.00 | 0.00 | 0.00 | 16 | 1006.5 |
| 20260502021545 | 68 | 300 | 2.0 | 6.0 | 0.00 | 0.00 | 0.00 | 15 | 1006.4 |
| 20260502020044 | 68 | 300 | 1.0 | 8.0 | 0.00 | 0.00 | 0.00 | 16 | 1006.4 |
| 20260502014543 | 69 | 300 | 3.0 | 8.0 | 0.00 | 0.00 | 0.00 | 16 | 1006.4 |
| 20260502013044 | 69 | 300 | 0.0 | 3.0 | 0.00 | 0.00 | 0.00 | 17 | 1006.5 |
| 20260502011541 | 70 | 300 | 0.0 | 4.0 | 0.00 | 0.00 | 0.00 | 16 | 1006.4 |
| 20260502010047 | 70 | 300 | 3.0 | 5.0 | 0.00 | 0.00 | 0.00 | 15 | 1006.6 |
| 20260502004537 | 70 | 300 | 1.0 | 6.0 | 0.00 | 0.00 | 0.00 | 15 | 1006.6 |
| 20260502003037 | 70 | 300 | 1.0 | 6.0 | 0.00 | 0.00 | 0.00 | 16 | 1006.7 |
| 20260502001536 | 71 | 300 | 1.0 | 5.0 | 0.00 | 0.00 | 0.00 | 16 | 1006.8 |
| 20260502000036 | 71 | 300 | 3.0 | 7.0 | 0.00 | 0.00 | 0.00 | 15 | 1006.8 |
| 20260501234536 | 71 | 300 | 0.0 | 8.0 | 0.00 | 0.00 | 0.00 | 16 | 1006.9 |
| 20260501233037 | 72 | 300 | 2.0 | 9.0 | 0.00 | 0.00 | 0.00 | 16 | 1007.2 |
| 20260501231530 | 71 | 300 | 2.0 | 6.0 | 0.00 | 0.00 | 0.00 | 15 | 1007.4 |
| 20260501230033 | 72 | 300 | 4.0 | 10.0 | 0.00 | 0.00 | 0.00 | 15 | 1007.6 |
| 20260501224528 | 72 | 302 | 5.0 | 9.0 | 0.00 | 0.00 | 0.00 | 16 | 1007.7 |
| 20260501223036 | 72 | 303 | 3.0 | 10.0 | 0.00 | 0.00 | 0.00 | 15 | 1008.0 |
| 20260501221527 | 73 | 304 | 5.0 | 9.0 | 0.00 | 0.00 | 0.00 | 15 | 1008.3 |